Location: Goll?ig?dem
(16.6773°N, 80.7332°E)
Time: 07:02:47
(UTC+00:00)

Cosmos 909 Rocket - Pass Details

Date: 21 April 2021
Orbit: 989 x 2090 km, 65.9° (Epoch: 06 May)

Event Time Altitude Azimuth Distance (km) Brightness Sun altitude
Rises 13:08:08 0° 196° (SSW) 4,241 7.4 -4.1°
Reaches altitude 10° 13:11:07 10° 194° (SSW) 3,137 6.7 -4.8°
Maximum altitude 13:18:17 71° 111° (ESE) 1,114 4.2 -6.5°
Drops below altitude 10° 13:24:32 10° 28° (NNE) 2,755 6.2 -7.9°
Sets 13:27:01 0° 27° (NNE) 3,693 6.9 -8.5°
